Tracking 34094 objects as of 11-May-2026
HD Live streaming from Space Station
objects crossing your sky now

WESTFORD NEEDLES

Track WESTFORD NEEDLES now!
10-day predictions
WESTFORD NEEDLES is classified as:


NORAD ID: 2375
Int'l Code: 1963-014W
Perigee: 1,978.1 km
Apogee: 5,178.3 km
Inclination: 86.5 °
Period: 164.6 minutes
Semi major axis: 9949 km
RCS: 0.1605 m2 (medium)
Launch date: May 9, 1963
Source: United States (US)
Launch site: AIR FORCE WESTERN TEST RANGE (AFWTR)
Your satellite tracking list
Your tracking list is empty




NASA's NSSDC Master Catalog

Two Line Element Set (TLE):
1 02375U 63014W   26130.17958072 -.00001260  00000-0 -14493+0 0  9993
2 02375  86.5402  57.4081 1608297 217.5830 130.1263  8.74823257368108
Source of the keplerian elements: AFSPC